M I D A S
Marine Information and Data Acquisition System
Tripno 2146 of the Zeeleeuw from 2011-07-15 08:13:18 to 2011-07-15 12:50:18
Back to CruiseResearch ActivitiesStationsMapUnderway DataData graphs

EquipmentUnitsComments
TimeDGPSUTC
LatitudeDGPSDM.mWGS84
LongitudeDGPSDM.mWGS84
SpeedMeteo Stationm/sRelative wind speed
DirectionMeteo StationdegRelative wind direction
TemperatureMeteo Stationdeg CelciusAir temperature
PressureMeteo StationPaAtmospheric pressure
HumidityMeteo Station%Relative humidity
Missing or incorrect values are displayed as -999
Metereological data collected by the RV Zeeleeuw from 2011-07-15 03:36:13 to 2011-07-15 12:59:38
                                                                                    Next 1000 lines
Time Latitude Longitude Speed Direction Temperature Pressure Humidity
2011-07-15 03:36:23 51°13.64 2°56.015 3 23 16.7 101720 35
2011-07-15 03:36:28 51°13.641 2°56.015 0.1 54 16.7 101720 35
2011-07-15 03:36:33 51°13.641 2°56.015 0.1 24 16.7 101730 36
2011-07-15 03:36:38 51°13.641 2°56.015 -999 54 16.7 101730 36
2011-07-15 03:36:43 51°13.641 2°56.015 -999 24 16.7 101730 36
2011-07-15 03:36:48 51°13.644 2°56.007 -999 78 16.7 101730 36
2011-07-15 03:36:54 51°13.645 2°56.007 -999 24 16.7 101730 36
2011-07-15 03:36:59 51°13.645 2°56.007 -999 54 16.7 101730 36
2011-07-15 03:37:04 51°13.645 2°56.007 -999 24 16.8 101730 36
2011-07-15 03:37:09 51°13.645 2°56.008 -999 55 16.8 101730 36
2011-07-15 03:37:14 51°13.646 2°56.008 -999 24 16.7 101730 36
2011-07-15 03:37:19 51°13.646 2°56.008 -999 54 16.7 101730 36
2011-07-15 03:37:24 51°13.647 2°56.007 -999 24 16.7 101730 36
2011-07-15 03:37:29 51°13.648 2°56.006 -999 54 16.7 101730 36
2011-07-15 03:37:34 51°13.648 2°56.005 -999 24 16.7 101730 36
2011-07-15 03:37:39 51°13.649 2°56.004 -999 54 16.7 101730 36
2011-07-15 03:37:44 51°13.649 2°56.004 -999 24 16.7 101720 35
2011-07-15 03:37:49 51°13.649 2°56.005 -999 54 16.7 101720 35
2011-07-15 03:37:54 51°13.649 2°56.006 -999 24 16.7 101730 36
2011-07-15 03:37:59 51°13.649 2°56.007 -999 54 16.7 101730 36
2011-07-15 03:38:04 51°13.649 2°56.007 -999 24 16.7 101730 36
2011-07-15 03:38:09 51°13.649 2°56.007 -999 54 16.7 101730 36
2011-07-15 03:38:14 51°13.65 2°56.006 -999 24 16.7 101730 36
2011-07-15 03:38:19 51°13.65 2°56.005 -999 54 16.7 101730 36
2011-07-15 03:38:24 51°13.651 2°56.006 -999 24 16.7 101730 36
2011-07-15 03:38:29 51°13.651 2°56.007 -999 54 16.7 101730 36
2011-07-15 03:38:34 51°13.65 2°56.007 -999 24 16.7 101730 36
2011-07-15 03:38:39 51°13.65 2°56.008 -999 54 16.7 101730 36
2011-07-15 03:38:44 51°13.65 2°56.007 -999 24 16.7 101730 36
2011-07-15 03:38:49 51°13.65 2°56.007 -999 54 16.7 101730 36
2011-07-15 03:38:54 51°13.651 2°56.006 -999 24 16.7 101730 36
2011-07-15 03:38:59 51°13.651 2°56.006 -999 54 16.7 101730 36
2011-07-15 03:39:04 51°13.652 2°56.006 -999 24 16.7 101730 36
2011-07-15 03:39:09 51°13.652 2°56.006 -999 54 16.7 101730 36
2011-07-15 03:39:14 51°13.652 2°56.006 -999 24 16.7 101730 36
2011-07-15 03:39:19 51°13.652 2°56.006 -999 54 16.7 101730 36
2011-07-15 03:39:24 51°13.653 2°56.006 -999 24 16.7 101730 36
2011-07-15 03:39:29 51°13.653 2°56.006 -999 54 16.7 101730 36
2011-07-15 03:39:34 51°13.653 2°56.006 -999 24 16.7 101730 36
2011-07-15 03:39:39 51°13.653 2°56.006 -999 54 16.7 101730 36
2011-07-15 03:39:44 51°13.653 2°56.006 -999 24 16.7 101730 36
2011-07-15 03:39:44 51°13.653 2°56.006 -999 54 16.7 101730 36
2011-07-15 03:39:44 51°13.653 2°56.006 -999 24 16.7 101730 36
2011-07-15 03:39:44 51°13.653 2°56.006 -999 54 16.7 101730 36
2011-07-15 03:39:44 51°13.653 2°56.006 -999 24 16.7 101730 36
2011-07-15 03:39:44 51°13.653 2°56.006 -999 55 16.7 101730 36
2011-07-15 03:39:44 51°13.653 2°56.006 -999 24 16.7 101730 36
2011-07-15 03:39:44 51°13.653 2°56.006 -999 54 16.7 101730 36
2011-07-15 03:39:44 51°13.653 2°56.006 -999 24 16.7 101730 35
2011-07-15 03:39:44 51°13.653 2°56.006 -999 44 16.7 101730 35
2011-07-15 03:39:44 51°13.653 2°56.006 -999 24 16.7 101730 36
2011-07-15 03:39:44 51°13.653 2°56.006 -999 54 16.7 101730 36
2011-07-15 03:39:44 51°13.653 2°56.006 -999 24 16.7 101730 36
2011-07-15 03:40:49 51°13.653 2°56.006 -999 54 16.7 101730 36
2011-07-15 03:40:54 51°13.653 2°56.006 -999 24 16.7 101730 36
2011-07-15 03:40:59 51°13.653 2°56.006 -999 54 16.7 101730 36
2011-07-15 03:41:04 51°13.653 2°56.006 -999 24 16.7 101730 36
2011-07-15 03:41:09 51°13.653 2°56.006 -999 54 16.7 101730 36
2011-07-15 03:41:14 51°13.653 2°56.006 -999 24 16.7 101730 36
2011-07-15 03:41:18 51°13.653 2°56.006 -999 54 16.7 101730 36
2011-07-15 03:41:23 51°13.653 2°56.006 -999 24 16.7 101730 36
2011-07-15 03:41:28 51°13.653 2°56.006 -999 54 16.7 101730 36
2011-07-15 03:41:33 51°13.653 2°56.006 -999 24 16.7 101730 36
2011-07-15 03:41:37 51°13.653 2°56.006 -999 54 16.7 101730 36
2011-07-15 03:41:43 51°13.635 2°56.015 -999 24 16.7 101730 36
2011-07-15 03:41:48 51°13.635 2°56.015 -999 54 16.7 101730 36
2011-07-15 03:41:54 51°13.635 2°56.015 -999 24 16.7 101730 36
2011-07-15 03:41:58 51°13.635 2°56.015 -999 54 16.7 101730 36
2011-07-15 03:42:03 51°13.635 2°56.015 -999 24 16.7 101730 36
2011-07-15 03:42:08 51°13.636 2°56.016 -999 54 16.7 101730 36
2011-07-15 03:42:13 51°13.636 2°56.016 -999 24 16.7 101730 36
2011-07-15 03:42:18 51°13.636 2°56.016 -999 55 16.7 101730 36
2011-07-15 03:42:23 51°13.636 2°56.016 -999 23 16.7 101730 36
2011-07-15 03:42:28 51°13.636 2°56.016 -999 54 16.7 101730 36
2011-07-15 03:42:33 51°13.636 2°56.016 -999 24 16.7 101730 36
2011-07-15 03:42:38 51°13.636 2°56.016 -999 54 16.7 101730 36
2011-07-15 03:42:43 51°13.636 2°56.016 -999 24 16.7 101730 36
2011-07-15 03:42:48 51°13.636 2°56.016 -999 78 16.7 101730 36
2011-07-15 03:42:54 51°13.636 2°56.016 -999 24 16.7 101730 37
2011-07-15 03:42:59 51°13.636 2°56.016 -999 54 16.7 101730 37
2011-07-15 03:43:04 51°13.635 2°56.016 -999 24 16.7 101730 35
2011-07-15 03:43:08 51°13.635 2°56.016 -999 54 16.7 101730 35
2011-07-15 03:43:14 51°13.635 2°56.016 -999 24 16.7 101730 36
2011-07-15 03:43:19 51°13.636 2°56.016 -999 55 16.7 101730 36
2011-07-15 03:43:24 51°13.636 2°56.016 -999 24 16.7 101730 36
2011-07-15 03:43:29 51°13.636 2°56.016 -999 54 16.7 101730 36
2011-07-15 03:43:34 51°13.636 2°56.016 -999 24 16.7 101730 36
2011-07-15 03:43:39 51°13.636 2°56.017 -999 54 16.7 101730 36
2011-07-15 03:43:43 51°13.636 2°56.016 -999 24 16.7 101730 36
2011-07-15 03:43:49 51°13.635 2°56.016 -999 78 16.7 101730 36
2011-07-15 03:43:53 51°13.635 2°56.016 -999 24 16.7 101730 36
2011-07-15 03:43:58 51°13.635 2°56.016 -999 54 16.7 101730 36
2011-07-15 03:44:03 51°13.635 2°56.016 -999 24 16.7 101730 36
2011-07-15 03:44:08 51°13.635 2°56.016 -999 54 16.7 101730 36
2011-07-15 03:44:13 51°13.636 2°56.016 -999 24 16.6 101730 36
2011-07-15 03:44:18 51°13.636 2°56.016 -999 54 16.6 101730 36
2011-07-15 03:44:23 51°13.636 2°56.016 -999 24 16.7 101730 36
2011-07-15 03:44:28 51°13.635 2°56.016 -999 54 16.7 101730 36
2011-07-15 03:44:33 51°13.635 2°56.016 -999 24 16.7 101730 36
2011-07-15 03:44:38 51°13.635 2°56.016 -999 54 16.7 101730 36
2011-07-15 03:44:43 51°13.635 2°56.016 -999 24 16.7 101730 36
2011-07-15 03:44:48 51°13.635 2°56.016 -999 54 16.7 101730 36
2011-07-15 03:44:53 51°13.635 2°56.016 -999 24 16.7 101730 36
2011-07-15 03:44:58 51°13.635 2°56.016 -999 54 16.7 101730 36
2011-07-15 03:45:03 51°13.635 2°56.016 -999 24 16.7 101730 36
2011-07-15 03:45:08 51°13.635 2°56.016 -999 55 16.7 101730 36
2011-07-15 03:45:14 51°13.635 2°56.016 -999 24 16.7 101730 36
2011-07-15 03:45:19 51°13.635 2°56.016 -999 54 16.7 101730 36
2011-07-15 03:45:24 51°13.635 2°56.016 -999 24 16.7 101730 36
2011-07-15 03:45:28 51°13.635 2°56.016 -999 54 16.7 101730 36
2011-07-15 03:45:33 51°13.635 2°56.016 -999 24 16.7 101730 36
2011-07-15 03:45:38 51°13.635 2°56.016 -999 54 16.7 101730 36
2011-07-15 03:45:43 51°13.635 2°56.016 -999 24 16.7 101740 35
2011-07-15 03:45:48 51°13.635 2°56.016 -999 78 16.7 101740 35
2011-07-15 03:45:53 51°13.635 2°56.016 -999 44 16.7 101730 36
2011-07-15 03:45:58 51°13.635 2°56.016 -999 54 16.7 101730 36
2011-07-15 03:46:03 51°13.635 2°56.016 -999 24 16.7 101730 36
2011-07-15 03:46:07 51°13.635 2°56.016 -999 54 16.7 101730 36
2011-07-15 03:46:13 51°13.635 2°56.016 -999 24 16.7 101730 36
2011-07-15 03:46:19 51°13.635 2°56.016 -999 54 16.7 101730 36
2011-07-15 03:46:24 51°13.635 2°56.016 -999 24 16.6 101730 36
2011-07-15 03:46:29 51°13.635 2°56.016 -999 54 16.6 101730 36
2011-07-15 03:46:33 51°13.635 2°56.016 -999 24 16.7 101730 36
2011-07-15 03:46:39 51°13.635 2°56.016 -999 54 16.7 101730 36
2011-07-15 03:46:43 51°13.635 2°56.016 -999 24 16.7 101730 36
2011-07-15 03:46:48 51°13.635 2°56.016 -999 54 16.7 101730 36
2011-07-15 03:46:53 51°13.635 2°56.016 -999 24 16.7 101730 36
2011-07-15 03:46:58 51°13.635 2°56.016 -999 54 16.7 101730 36
2011-07-15 03:47:03 51°13.635 2°56.016 -999 24 16.7 101730 36
2011-07-15 03:47:08 51°13.635 2°56.016 -999 55 16.7 101730 36
2011-07-15 03:47:13 51°13.635 2°56.016 -999 24 16.7 101730 36
2011-07-15 03:47:18 51°13.635 2°56.016 -999 54 16.7 101730 36
2011-07-15 03:47:23 51°13.635 2°56.016 -999 24 16.7 101730 36
2011-07-15 03:47:28 51°13.635 2°56.017 -999 54 16.7 101730 36
2011-07-15 03:47:33 51°13.635 2°56.017 -999 24 16.7 101740 36
2011-07-15 03:47:38 51°13.635 2°56.017 -999 54 16.7 101740 36
2011-07-15 03:47:43 51°13.635 2°56.017 -999 24 16.7 101730 36
2011-07-15 03:47:48 51°13.635 2°56.017 -999 78 16.7 101730 36
2011-07-15 03:47:53 51°13.635 2°56.017 -999 24 16.7 101740 36
2011-07-15 03:47:58 51°13.635 2°56.017 -999 54 16.7 101740 36
2011-07-15 03:48:03 51°13.635 2°56.017 -999 24 16.7 101730 36
2011-07-15 03:48:08 51°13.635 2°56.017 -999 54 16.7 101730 36
2011-07-15 03:48:13 51°13.635 2°56.017 -999 24 16.7 101740 36
2011-07-15 03:48:18 51°13.635 2°56.017 -999 55 16.7 101740 36
2011-07-15 03:48:23 51°13.635 2°56.017 -999 24 16.7 101730 35
2011-07-15 03:48:29 51°13.635 2°56.017 -999 55 16.7 101730 35
2011-07-15 03:48:34 51°13.635 2°56.017 -999 24 16.7 101730 36
2011-07-15 03:48:38 51°13.635 2°56.017 -999 54 16.7 101730 36
2011-07-15 03:48:43 51°13.635 2°56.017 -999 24 16.7 101730 36
2011-07-15 03:48:48 51°13.635 2°56.017 -999 54 16.7 101730 36
2011-07-15 03:48:53 51°13.635 2°56.017 -999 24 16.7 101730 36
2011-07-15 03:48:58 51°13.636 2°56.017 -999 54 16.7 101730 36
2011-07-15 03:49:04 51°13.635 2°56.018 -999 24 16.7 101730 36
2011-07-15 03:49:09 51°13.635 2°56.017 -999 54 16.7 101730 36
2011-07-15 03:49:14 51°13.635 2°56.017 -999 24 16.7 101730 36
2011-07-15 03:49:19 51°13.635 2°56.017 -999 54 16.7 101730 36
2011-07-15 03:49:24 51°13.635 2°56.017 -999 24 16.7 101730 36
2011-07-15 03:49:29 51°13.636 2°56.017 -999 54 16.7 101730 36
2011-07-15 03:49:33 51°13.635 2°56.017 -999 24 16.7 101730 36
2011-07-15 03:49:39 51°13.636 2°56.017 -999 54 16.7 101730 36
2011-07-15 03:49:44 51°13.636 2°56.017 -999 24 16.7 101730 36
2011-07-15 03:49:49 51°13.636 2°56.017 -999 78 16.7 101730 36
2011-07-15 03:49:53 51°13.635 2°56.017 -999 24 16.7 101730 36
2011-07-15 03:49:58 51°13.635 2°56.017 -999 54 16.7 101730 36
2011-07-15 03:50:03 51°13.635 2°56.017 -999 24 16.7 101730 36
2011-07-15 03:50:09 51°13.635 2°56.017 -999 54 16.7 101730 36
2011-07-15 03:50:13 51°13.635 2°56.017 -999 24 16.7 101730 36
2011-07-15 03:50:18 51°13.635 2°56.017 -999 54 16.7 101730 36
2011-07-15 03:50:23 51°13.635 2°56.017 -999 24 16.7 101730 36
2011-07-15 03:50:28 51°13.635 2°56.017 -999 54 16.7 101730 36
2011-07-15 03:50:33 51°13.635 2°56.017 -999 24 16.7 101730 36
2011-07-15 03:50:38 51°13.635 2°56.016 -999 54 16.7 101730 36
2011-07-15 03:50:43 51°13.635 2°56.016 -999 24 16.7 101730 37
2011-07-15 03:50:48 51°13.635 2°56.016 -999 78 16.7 101730 37
2011-07-15 03:50:53 51°13.635 2°56.016 -999 24 16.7 101730 37
2011-07-15 03:50:58 51°13.635 2°56.016 -999 54 16.7 101730 37
2011-07-15 03:51:03 51°13.635 2°56.016 -999 24 16.7 101730 35
2011-07-15 03:51:08 51°13.635 2°56.016 -999 54 16.7 101730 35
2011-07-15 03:51:13 51°13.636 2°56.016 -999 24 16.7 101730 37
2011-07-15 03:51:18 51°13.636 2°56.016 -999 54 16.7 101730 37
2011-07-15 03:51:23 51°13.636 2°56.016 -999 24 16.7 101730 37
2011-07-15 03:51:29 51°13.636 2°56.016 -999 54 16.7 101730 37
2011-07-15 03:51:34 51°13.635 2°56.016 -999 24 16.7 101730 37
2011-07-15 03:51:38 51°13.635 2°56.016 -999 54 16.7 101730 37
2011-07-15 03:51:44 51°13.635 2°56.016 -999 24 16.7 101740 37
2011-07-15 03:51:48 51°13.635 2°56.016 -999 78 16.7 101740 37
2011-07-15 03:51:53 51°13.635 2°56.016 -999 24 16.7 101730 37
2011-07-15 03:51:59 51°13.635 2°56.016 -999 54 16.7 101730 37
2011-07-15 03:52:03 51°13.635 2°56.016 -999 24 16.7 101730 37
2011-07-15 03:52:08 51°13.635 2°56.016 -999 54 16.7 101730 37
2011-07-15 03:52:14 51°13.635 2°56.016 -999 24 16.7 101730 37
2011-07-15 03:52:19 51°13.635 2°56.016 -999 54 16.7 101730 37
2011-07-15 03:52:23 51°13.635 2°56.016 -999 24 16.7 101740 37
2011-07-15 03:52:28 51°13.635 2°56.016 -999 54 16.7 101740 37
2011-07-15 03:52:33 51°13.636 2°56.016 -999 24 16.7 101730 37
2011-07-15 03:52:38 51°13.635 2°56.016 -999 54 16.7 101730 37
2011-07-15 03:52:43 51°13.635 2°56.016 -999 24 16.7 101730 37
2011-07-15 03:52:48 51°13.635 2°56.016 -999 54 16.7 101730 37
2011-07-15 03:52:53 51°13.635 2°56.016 -999 24 16.7 101730 37
2011-07-15 03:52:58 51°13.636 2°56.016 -999 54 16.7 101730 37
2011-07-15 03:53:03 51°13.635 2°56.016 -999 24 16.7 101740 37
2011-07-15 03:53:08 51°13.635 2°56.016 -999 55 16.7 101740 37
2011-07-15 03:53:13 51°13.635 2°56.016 -999 24 16.7 101740 37
2011-07-15 03:53:18 51°13.635 2°56.016 -999 54 16.7 101740 37
2011-07-15 03:53:23 51°13.635 2°56.016 -999 24 16.7 101730 37
2011-07-15 03:53:28 51°13.635 2°56.016 -999 54 16.7 101730 37
2011-07-15 03:53:33 51°13.635 2°56.016 -999 24 16.7 101730 37
2011-07-15 03:53:38 51°13.635 2°56.016 -999 54 16.7 101730 37
2011-07-15 03:53:43 51°13.635 2°56.016 -999 24 16.6 101740 35
2011-07-15 03:53:48 51°13.635 2°56.016 -999 78 16.6 101740 35
2011-07-15 03:53:54 51°13.635 2°56.016 -999 24 16.7 101740 37
2011-07-15 03:53:59 51°13.635 2°56.017 -999 54 16.7 101740 37
2011-07-15 03:54:03 51°13.635 2°56.017 -999 24 16.7 101740 37
2011-07-15 03:54:08 51°13.635 2°56.017 -999 54 16.7 101740 37
2011-07-15 03:54:13 51°13.635 2°56.016 -999 24 16.7 101730 37
2011-07-15 03:54:18 51°13.635 2°56.017 -999 54 16.7 101730 37
2011-07-15 03:54:23 51°13.635 2°56.017 -999 24 16.7 101730 37
2011-07-15 03:54:28 51°13.635 2°56.017 -999 54 16.7 101730 37
2011-07-15 03:54:33 51°13.635 2°56.017 -999 24 16.6 101730 36
2011-07-15 03:54:38 51°13.635 2°56.016 -999 54 16.6 101730 36
2011-07-15 03:54:43 51°13.635 2°56.016 -999 24 16.6 101730 37
2011-07-15 03:54:48 51°13.635 2°56.017 -999 78 16.6 101730 37
2011-07-15 03:54:53 51°13.635 2°56.017 -999 24 16.7 101730 37
2011-07-15 03:54:58 51°13.635 2°56.017 -999 54 16.7 101730 37
2011-07-15 03:55:03 51°13.635 2°56.017 -999 24 16.6 101730 37
2011-07-15 03:55:08 51°13.635 2°56.017 -999 54 16.6 101730 37
2011-07-15 03:55:13 51°13.635 2°56.017 -999 24 16.7 101730 37
2011-07-15 03:55:18 51°13.635 2°56.017 -999 54 16.7 101730 37
2011-07-15 03:55:23 51°13.635 2°56.017 -999 24 16.7 101740 37
2011-07-15 03:55:28 51°13.635 2°56.017 -999 54 16.7 101740 37
2011-07-15 03:55:33 51°13.635 2°56.016 -999 24 16.6 101730 37
2011-07-15 03:55:38 51°13.635 2°56.016 -999 54 16.6 101730 37
2011-07-15 03:55:43 51°13.635 2°56.017 -999 24 16.6 101740 37
2011-07-15 03:55:48 51°13.635 2°56.016 -999 78 16.6 101740 37
2011-07-15 03:55:54 51°13.635 2°56.016 -999 24 16.6 101740 37
2011-07-15 03:55:58 51°13.635 2°56.016 -999 54 16.6 101740 37
2011-07-15 03:56:03 51°13.635 2°56.016 -999 24 16.6 101730 37
2011-07-15 03:56:08 51°13.635 2°56.016 -999 54 16.6 101730 37
2011-07-15 03:56:13 51°13.636 2°56.017 -999 24 16.6 101730 37
2011-07-15 03:56:18 51°13.636 2°56.017 -999 54 16.6 101730 37
2011-07-15 03:56:23 51°13.636 2°56.017 -999 24 16.6 101740 35
2011-07-15 03:56:28 51°13.636 2°56.017 -999 54 16.6 101740 35
2011-07-15 03:56:33 51°13.636 2°56.017 -999 24 16.6 101740 36
2011-07-15 03:56:39 51°13.636 2°56.017 -999 54 16.6 101740 36
2011-07-15 03:56:43 51°13.636 2°56.016 -999 24 16.6 101730 36
2011-07-15 03:56:48 51°13.636 2°56.016 -999 78 16.6 101730 36
2011-07-15 03:56:54 51°13.635 2°56.016 -999 24 16.6 101730 36
2011-07-15 03:56:59 51°13.635 2°56.016 -999 54 16.6 101730 36
2011-07-15 03:57:03 51°13.636 2°56.016 -999 24 16.6 101740 36
2011-07-15 03:57:08 51°13.636 2°56.016 -999 54 16.6 101740 36
2011-07-15 03:57:13 51°13.636 2°56.016 -999 24 16.6 101740 36
2011-07-15 03:57:18 51°13.636 2°56.016 -999 54 16.6 101740 36
2011-07-15 03:57:23 51°13.636 2°56.016 -999 24 16.6 101740 36
2011-07-15 03:57:28 51°13.636 2°56.016 -999 54 16.6 101740 36
2011-07-15 03:57:33 51°13.636 2°56.016 -999 24 16.6 101730 36
2011-07-15 03:57:38 51°13.636 2°56.016 -999 54 16.6 101730 36
2011-07-15 03:57:44 51°13.636 2°56.016 -999 24 16.6 101730 36
2011-07-15 03:57:49 51°13.636 2°56.016 -999 78 16.6 101730 36
2011-07-15 03:57:54 51°13.636 2°56.016 -999 24 16.6 101740 36
2011-07-15 03:57:59 51°13.636 2°56.016 -999 54 16.6 101740 36
2011-07-15 03:58:03 51°13.636 2°56.016 -999 24 16.6 101740 37
2011-07-15 03:58:09 51°13.636 2°56.016 -999 54 16.6 101740 37
2011-07-15 03:58:14 51°13.636 2°56.016 -999 24 16.7 101740 37
2011-07-15 03:58:19 51°13.636 2°56.015 -999 54 16.7 101740 37
2011-07-15 03:58:23 51°13.636 2°56.015 -999 24 16.6 101740 36
2011-07-15 03:58:28 51°13.636 2°56.015 -999 54 16.6 101740 36
2011-07-15 03:58:33 51°13.635 2°56.015 -999 24 16.6 101740 37
2011-07-15 03:58:38 51°13.635 2°56.015 -999 54 16.6 101740 37
2011-07-15 03:58:43 51°13.635 2°56.015 -999 24 16.6 101740 36
2011-07-15 03:58:48 51°13.636 2°56.015 -999 54 16.6 101740 36
2011-07-15 03:58:53 51°13.636 2°56.015 -999 24 16.6 101740 36
2011-07-15 03:58:58 51°13.636 2°56.015 -999 54 16.6 101740 36
2011-07-15 03:59:03 51°13.636 2°56.015 -999 24 16.6 101740 35
2011-07-15 03:59:08 51°13.636 2°56.015 -999 54 16.6 101740 35
2011-07-15 03:59:13 51°13.636 2°56.015 -999 24 16.6 101740 36
2011-07-15 03:59:18 51°13.636 2°56.015 -999 54 16.6 101740 36
2011-07-15 03:59:23 51°13.636 2°56.015 -999 24 16.6 101740 36
2011-07-15 03:59:28 51°13.636 2°56.015 -999 54 16.6 101740 36
2011-07-15 03:59:33 51°13.636 2°56.015 -999 24 16.6 101740 36
2011-07-15 03:59:39 51°13.636 2°56.015 -999 54 16.6 101740 36
2011-07-15 03:59:43 51°13.636 2°56.015 -999 24 16.6 101740 36
2011-07-15 03:59:48 51°13.636 2°56.015 -999 78 16.6 101740 36
2011-07-15 03:59:53 51°13.636 2°56.015 -999 24 16.6 101740 37
2011-07-15 03:59:58 51°13.636 2°56.015 -999 54 16.6 101740 37
2011-07-15 04:00:03 51°13.636 2°56.015 -999 24 16.6 101740 36
2011-07-15 04:00:08 51°13.636 2°56.015 -999 54 16.6 101740 36
2011-07-15 04:00:13 51°13.636 2°56.015 -999 24 16.6 101740 36
2011-07-15 04:00:18 51°13.636 2°56.015 -999 54 16.6 101740 36
2011-07-15 04:00:23 51°13.636 2°56.015 -999 24 16.6 101740 36
2011-07-15 04:00:28 51°13.636 2°56.015 -999 54 16.6 101740 36
2011-07-15 04:00:33 51°13.636 2°56.015 -999 24 16.6 101740 36
2011-07-15 04:00:38 51°13.636 2°56.015 -999 54 16.6 101740 36
2011-07-15 04:00:43 51°13.636 2°56.015 -999 23 16.6 101740 36
2011-07-15 04:00:48 51°13.636 2°56.015 -999 54 16.6 101740 36
2011-07-15 04:00:53 51°13.636 2°56.015 -999 24 16.6 101740 37
2011-07-15 04:00:58 51°13.636 2°56.015 -999 54 16.6 101740 37
2011-07-15 04:01:03 51°13.636 2°56.016 -999 24 16.6 101740 37
2011-07-15 04:01:08 51°13.636 2°56.016 -999 54 16.6 101740 37
2011-07-15 04:01:14 51°13.636 2°56.016 -999 24 16.6 101740 37
2011-07-15 04:01:19 51°13.636 2°56.016 -999 54 16.6 101740 37
2011-07-15 04:01:23 51°13.636 2°56.016 -999 24 16.6 101740 37
2011-07-15 04:01:28 51°13.636 2°56.016 -999 54 16.6 101740 37
2011-07-15 04:01:34 51°13.636 2°56.016 -999 24 16.6 101740 37
2011-07-15 04:01:38 51°13.636 2°56.016 -999 54 16.6 101740 37
2011-07-15 04:01:43 51°13.636 2°56.016 -999 24 16.6 101740 35
2011-07-15 04:01:49 51°13.636 2°56.016 -999 78 16.6 101740 35
2011-07-15 04:01:54 51°13.636 2°56.016 -999 24 16.6 101740 37
2011-07-15 04:01:58 51°13.636 2°56.016 -999 54 16.6 101740 37
2011-07-15 04:02:03 51°13.636 2°56.016 -999 24 16.6 101740 37
2011-07-15 04:02:09 51°13.636 2°56.015 -999 55 16.6 101740 37
2011-07-15 04:02:13 51°13.636 2°56.015 -999 24 16.6 101740 37
2011-07-15 04:02:18 51°13.636 2°56.015 -999 54 16.6 101740 37
2011-07-15 04:02:24 51°13.636 2°56.016 -999 24 16.6 101740 37
2011-07-15 04:02:29 51°13.636 2°56.016 -999 55 16.6 101740 37
2011-07-15 04:02:33 51°13.636 2°56.016 -999 24 16.6 101740 37
2011-07-15 04:02:39 51°13.636 2°56.016 -999 54 16.6 101740 37
2011-07-15 04:02:44 51°13.636 2°56.016 -999 24 16.6 101740 37
2011-07-15 04:02:49 51°13.636 2°56.016 -999 54 16.6 101740 37
2011-07-15 04:02:54 51°13.636 2°56.016 -999 24 16.6 101740 37
2011-07-15 04:02:58 51°13.636 2°56.016 -999 54 16.6 101740 37
2011-07-15 04:03:03 51°13.636 2°56.016 -999 24 16.6 101740 37
2011-07-15 04:03:08 51°13.636 2°56.016 -999 54 16.6 101740 37
2011-07-15 04:03:13 51°13.637 2°56.016 -999 24 16.6 101740 36
2011-07-15 04:03:18 51°13.636 2°56.016 -999 54 16.6 101740 36
2011-07-15 04:03:23 51°13.637 2°56.015 -999 24 16.6 101740 36
2011-07-15 04:03:28 51°13.636 2°56.015 -999 54 16.6 101740 36
2011-07-15 04:03:33 51°13.637 2°56.015 -999 24 16.6 101740 36
2011-07-15 04:03:38 51°13.637 2°56.016 -999 54 16.6 101740 36
2011-07-15 04:03:43 51°13.636 2°56.016 -999 24 16.6 101740 37
2011-07-15 04:03:48 51°13.636 2°56.016 -999 78 16.6 101740 37
2011-07-15 04:03:54 51°13.636 2°56.016 -999 24 16.6 101740 36
2011-07-15 04:03:58 51°13.636 2°56.016 -999 54 16.6 101740 36
2011-07-15 04:04:04 51°13.636 2°56.016 -999 24 16.6 101740 37
2011-07-15 04:04:09 51°13.636 2°56.016 -999 54 16.6 101740 37
2011-07-15 04:04:13 51°13.636 2°56.016 -999 24 16.6 101740 37
2011-07-15 04:04:18 51°13.636 2°56.016 -999 54 16.6 101740 37
2011-07-15 04:04:23 51°13.636 2°56.016 -999 24 16.6 101740 35
2011-07-15 04:04:29 51°13.636 2°56.016 -999 54 16.6 101740 35
2011-07-15 04:04:33 51°13.636 2°56.016 -999 24 16.6 101740 37
2011-07-15 04:04:38 51°13.636 2°56.015 -999 54 16.6 101740 37
2011-07-15 04:04:43 51°13.636 2°56.015 -999 24 16.6 101740 37
2011-07-15 04:04:48 51°13.636 2°56.015 -999 54 16.6 101740 37
2011-07-15 04:04:53 51°13.636 2°56.016 -999 24 16.6 101740 37
2011-07-15 04:04:58 51°13.637 2°56.016 -999 54 16.6 101740 37
2011-07-15 04:05:03 51°13.637 2°56.016 -999 24 16.6 101740 37
2011-07-15 04:05:08 51°13.637 2°56.016 -999 54 16.6 101740 37
2011-07-15 04:05:13 51°13.637 2°56.016 -999 24 16.6 101740 37
2011-07-15 04:05:19 51°13.637 2°56.016 -999 54 16.6 101740 37
2011-07-15 04:05:23 51°13.637 2°56.015 -999 24 16.6 101740 37
2011-07-15 04:05:28 51°13.637 2°56.015 -999 54 16.6 101740 37
2011-07-15 04:05:33 51°13.637 2°56.015 -999 24 16.6 101740 37
2011-07-15 04:05:38 51°13.637 2°56.015 -999 54 16.6 101740 37
2011-07-15 04:05:43 51°13.637 2°56.015 -999 24 16.6 101740 37
2011-07-15 04:05:48 51°13.637 2°56.015 -999 78 16.6 101740 37
2011-07-15 04:05:53 51°13.636 2°56.015 -999 24 16.6 101740 37
2011-07-15 04:05:58 51°13.636 2°56.016 -999 54 16.6 101740 37
2011-07-15 04:06:03 51°13.636 2°56.016 -999 24 16.6 101740 37
2011-07-15 04:06:08 51°13.636 2°56.016 -999 54 16.6 101740 37
2011-07-15 04:06:13 51°13.636 2°56.016 -999 24 16.6 101740 37
2011-07-15 04:06:18 51°13.636 2°56.016 -999 54 16.6 101740 37
2011-07-15 04:06:23 51°13.636 2°56.016 -999 24 16.6 101740 37
2011-07-15 04:06:28 51°13.636 2°56.016 -999 54 16.6 101740 37
2011-07-15 04:06:33 51°13.636 2°56.016 -999 24 16.6 101740 37
2011-07-15 04:06:39 51°13.637 2°56.016 -999 54 16.6 101740 37
2011-07-15 04:06:44 51°13.637 2°56.016 -999 24 16.6 101740 37
2011-07-15 04:06:48 51°13.637 2°56.016 -999 54 16.6 101740 37
2011-07-15 04:06:53 51°13.637 2°56.016 -999 24 16.6 101740 37
2011-07-15 04:06:58 51°13.636 2°56.016 -999 54 16.6 101740 37
2011-07-15 04:07:03 51°13.636 2°56.016 -999 24 16.6 101740 36
2011-07-15 04:07:08 51°13.636 2°56.016 -999 54 16.6 101740 36
2011-07-15 04:07:13 51°13.636 2°56.016 -999 24 16.6 101740 37
2011-07-15 04:07:18 51°13.636 2°56.016 -999 54 16.6 101740 37
2011-07-15 04:07:23 51°13.636 2°56.016 -999 24 16.6 101740 37
2011-07-15 04:07:28 51°13.636 2°56.016 -999 54 16.6 101740 37
2011-07-15 04:07:33 51°13.636 2°56.016 -999 24 16.6 101740 37
2011-07-15 04:07:38 51°13.636 2°56.016 -999 54 16.6 101740 37
2011-07-15 04:07:43 51°13.636 2°56.016 -999 24 16.5 101740 37
2011-07-15 04:07:48 51°13.636 2°56.016 -999 54 16.5 101740 37
2011-07-15 04:07:53 51°13.636 2°56.016 -999 24 16.6 101740 37
2011-07-15 04:07:58 51°13.636 2°56.016 -999 54 16.6 101740 37
2011-07-15 04:08:03 51°13.636 2°56.016 -999 24 16.6 101740 37
2011-07-15 04:08:08 51°13.636 2°56.016 -999 54 16.6 101740 37
2011-07-15 04:08:13 51°13.636 2°56.016 -999 28 16.6 101740 37
2011-07-15 04:08:18 51°13.636 2°56.015 2.8 52 16.6 101740 37
2011-07-15 04:08:24 51°13.636 2°56.016 2 23 16.6 101740 37
2011-07-15 04:08:29 51°13.636 2°56.015 1.8 56 16.6 101740 37
2011-07-15 04:08:33 51°13.636 2°56.015 1.7 25 16.5 101740 36
2011-07-15 04:08:39 51°13.636 2°56.015 0.3 54 16.5 101740 36
2011-07-15 04:08:43 51°13.636 2°56.015 0.1 30 16.5 101740 37
2011-07-15 04:08:48 51°13.636 2°56.015 2.8 72 16.5 101740 37
2011-07-15 04:08:53 51°13.636 2°56.015 3 25 16.5 101740 37
2011-07-15 04:08:58 51°13.636 2°56.015 3 50 16.5 101740 37
2011-07-15 04:09:03 51°13.636 2°56.015 3 26 16.6 101750 37
2011-07-15 04:09:08 51°13.636 2°56.015 1.4 53 16.6 101750 37
2011-07-15 04:09:13 51°13.636 2°56.015 3.1 23 16.6 101740 37
2011-07-15 04:09:18 51°13.636 2°56.015 3 51 16.6 101740 37
2011-07-15 04:09:23 51°13.636 2°56.015 2.2 29 16.6 101740 37
2011-07-15 04:09:28 51°13.636 2°56.015 1.5 60 16.6 101740 37
2011-07-15 04:09:34 51°13.636 2°56.015 1.5 26 16.5 101750 36
2011-07-15 04:09:39 51°13.636 2°56.015 0.5 51 16.5 101750 36
2011-07-15 04:09:43 51°13.636 2°56.015 0.9 23 16.5 101750 35
2011-07-15 04:09:48 51°13.636 2°56.015 3.6 56 16.5 101750 35
2011-07-15 04:09:53 51°13.636 2°56.015 3.7 25 16.5 101750 36
2011-07-15 04:09:58 51°13.636 2°56.015 2.3 58 16.5 101750 36
2011-07-15 04:10:03 51°13.636 2°56.015 1.2 20 16.5 101750 37
2011-07-15 04:10:08 51°13.636 2°56.015 2.5 53 16.5 101750 37
2011-07-15 04:10:13 51°13.636 2°56.015 2.7 22 16.5 101750 37
2011-07-15 04:10:18 51°13.636 2°56.015 3.2 58 16.5 101750 37
2011-07-15 04:10:23 51°13.636 2°56.015 4.7 25 16.5 101740 37
2011-07-15 04:10:28 51°13.636 2°56.015 2.9 58 16.5 101740 37
2011-07-15 04:10:33 51°13.636 2°56.015 3.8 26 16.5 101750 37
2011-07-15 04:10:38 51°13.636 2°56.015 3.7 52 16.5 101750 37
2011-07-15 04:10:44 51°13.636 2°56.015 3.8 20 16.5 101750 36
2011-07-15 04:10:48 51°13.636 2°56.015 2.2 80 16.5 101750 36
2011-07-15 04:10:53 51°13.636 2°56.015 3.7 28 16.4 101750 35
2011-07-15 04:10:58 51°13.636 2°56.015 3.3 50 16.4 101750 35
2011-07-15 04:11:03 51°13.636 2°56.016 2.9 28 16.4 101750 35
2011-07-15 04:11:08 51°13.636 2°56.016 3.1 50 16.4 101750 35
2011-07-15 04:11:13 51°13.636 2°56.016 2.5 26 16.4 101740 35
2011-07-15 04:11:18 51°13.636 2°56.016 2.2 55 16.4 101740 35
2011-07-15 04:11:23 51°13.636 2°56.016 2.3 25 16.4 101750 36
2011-07-15 04:11:28 51°13.636 2°56.016 3.8 55 16.4 101750 36
2011-07-15 04:11:33 51°13.636 2°56.016 2 27 16.4 101750 35
2011-07-15 04:11:38 51°13.636 2°56.016 2.5 59 16.4 101750 35
2011-07-15 04:11:43 51°13.636 2°56.016 3.6 22 16.4 101740 35
2011-07-15 04:11:48 51°13.636 2°56.016 2.3 54 16.4 101740 35
2011-07-15 04:11:53 51°13.636 2°56.016 0.4 30 16.4 101750 34
2011-07-15 04:11:58 51°13.636 2°56.016 3.3 49 16.4 101750 34
2011-07-15 04:12:03 51°13.637 2°56.016 3 18 16.4 101740 35
2011-07-15 04:12:08 51°13.637 2°56.016 0.1 54 16.4 101740 35
2011-07-15 04:12:13 51°13.637 2°56.016 0.1 24 16.4 101750 35
2011-07-15 04:12:18 51°13.637 2°56.016 -999 54 16.4 101750 35
2011-07-15 04:12:23 51°13.637 2°56.016 -999 24 16.4 101750 33
2011-07-15 04:12:28 51°13.637 2°56.016 -999 54 16.4 101750 33
2011-07-15 04:12:33 51°13.636 2°56.016 -999 24 16.5 101740 35
2011-07-15 04:12:38 51°13.637 2°56.017 -999 54 16.5 101740 35
2011-07-15 04:12:44 51°13.636 2°56.017 0.8 22 16.5 101740 35
2011-07-15 04:12:49 51°13.637 2°56.016 0.1 78 16.5 101740 35
2011-07-15 04:12:54 51°13.637 2°56.016 2.5 30 16.5 101750 35
2011-07-15 04:12:58 51°13.637 2°56.016 0.1 55 16.5 101750 35
2011-07-15 04:13:03 51°13.637 2°56.017 0.1 24 16.5 101750 35
2011-07-15 04:13:08 51°13.637 2°56.017 -999 54 16.5 101750 35
2011-07-15 04:13:13 51°13.637 2°56.017 -999 24 16.5 101750 36
2011-07-15 04:13:18 51°13.637 2°56.017 0.3 53 16.5 101750 36
2011-07-15 04:13:23 51°13.637 2°56.017 0.1 29 16.5 101750 35
2011-07-15 04:13:28 51°13.636 2°56.017 0.1 55 16.5 101750 35
2011-07-15 04:13:34 51°13.636 2°56.017 -999 24 16.5 101750 36
2011-07-15 04:13:39 51°13.636 2°56.017 -999 55 16.5 101750 36
2011-07-15 04:13:44 51°13.636 2°56.017 0.8 20 16.5 101750 36
2011-07-15 04:13:49 51°13.636 2°56.017 3.9 75 16.5 101750 36
2011-07-15 04:13:54 51°13.636 2°56.017 3.2 27 16.5 101750 36
2011-07-15 04:13:59 51°13.636 2°56.017 0.3 57 16.5 101750 36
2011-07-15 04:14:04 51°13.636 2°56.017 0.1 25 16.5 101750 36
2011-07-15 04:14:08 51°13.636 2°56.017 0.1 55 16.5 101750 36
2011-07-15 04:14:13 51°13.636 2°56.017 -999 24 16.5 101750 36
2011-07-15 04:14:18 51°13.637 2°56.017 -999 55 16.5 101750 36
2011-07-15 04:14:23 51°13.637 2°56.017 -999 24 16.5 101750 36
2011-07-15 04:14:28 51°13.636 2°56.017 -999 55 16.5 101750 36
2011-07-15 04:14:33 51°13.636 2°56.017 -999 24 16.5 101750 36
2011-07-15 04:14:38 51°13.637 2°56.017 -999 54 16.5 101750 36
2011-07-15 04:14:43 51°13.637 2°56.017 -999 24 16.5 101750 36
2011-07-15 04:14:48 51°13.637 2°56.017 -999 78 16.5 101750 36
2011-07-15 04:14:53 51°13.637 2°56.017 -999 24 16.5 101750 36
2011-07-15 04:14:58 51°13.637 2°56.017 -999 54 16.5 101750 36
2011-07-15 04:15:04 51°13.637 2°56.017 -999 24 16.5 101750 35
2011-07-15 04:15:08 51°13.637 2°56.017 -999 54 16.5 101750 35
2011-07-15 04:15:13 51°13.637 2°56.017 -999 24 16.5 101750 36
2011-07-15 04:15:18 51°13.637 2°56.017 -999 54 16.5 101750 36
2011-07-15 04:15:23 51°13.637 2°56.017 -999 24 16.5 101750 36
2011-07-15 04:15:28 51°13.637 2°56.017 -999 54 16.5 101750 36
2011-07-15 04:15:33 51°13.637 2°56.017 -999 24 16.5 101750 36
2011-07-15 04:15:38 51°13.637 2°56.017 -999 54 16.5 101750 36
2011-07-15 04:15:44 51°13.637 2°56.017 -999 24 16.5 101750 37
2011-07-15 04:15:49 51°13.637 2°56.017 -999 78 16.5 101750 37
2011-07-15 04:15:53 51°13.637 2°56.017 -999 24 16.5 101750 37
2011-07-15 04:15:58 51°13.636 2°56.017 -999 55 16.5 101750 37
2011-07-15 04:16:04 51°13.636 2°56.017 -999 24 16.5 101750 37
2011-07-15 04:16:09 51°13.636 2°56.017 -999 54 16.5 101750 37
2011-07-15 04:16:13 51°13.636 2°56.017 -999 24 16.5 101750 37
2011-07-15 04:16:18 51°13.636 2°56.017 -999 55 16.5 101750 37
2011-07-15 04:16:23 51°13.636 2°56.017 -999 24 16.5 101750 37
2011-07-15 04:16:28 51°13.636 2°56.017 -999 54 16.5 101750 37
2011-07-15 04:16:33 51°13.636 2°56.017 -999 24 16.5 101750 37
2011-07-15 04:16:38 51°13.636 2°56.018 -999 54 16.5 101750 37
2011-07-15 04:16:43 51°13.636 2°56.018 -999 24 16.5 101750 37
2011-07-15 04:16:48 51°13.636 2°56.018 -999 78 16.5 101750 37
2011-07-15 04:16:53 51°13.636 2°56.018 -999 24 16.5 101750 37
2011-07-15 04:16:58 51°13.636 2°56.018 -999 55 16.5 101750 37
2011-07-15 04:17:03 51°13.636 2°56.018 -999 24 16.5 101750 37
2011-07-15 04:17:08 51°13.636 2°56.018 -999 54 16.5 101750 37
2011-07-15 04:17:13 51°13.636 2°56.018 -999 24 16.5 101750 37
2011-07-15 04:17:18 51°13.636 2°56.018 -999 54 16.5 101750 37
2011-07-15 04:17:23 51°13.636 2°56.018 -999 24 16.5 101750 37
2011-07-15 04:17:28 51°13.636 2°56.018 -999 55 16.5 101750 37
2011-07-15 04:17:34 51°13.636 2°56.018 -999 24 16.5 101750 37
2011-07-15 04:17:39 51°13.636 2°56.018 -999 54 16.5 101750 37
2011-07-15 04:17:44 51°13.636 2°56.019 -999 24 16.5 101750 36
2011-07-15 04:17:48 51°13.636 2°56.019 -999 78 16.5 101750 36
2011-07-15 04:17:53 51°13.636 2°56.019 -999 24 16.5 101760 37
2011-07-15 04:17:59 51°13.636 2°56.019 -999 54 16.5 101760 37
2011-07-15 04:18:04 51°13.636 2°56.019 -999 24 16.5 101760 37
2011-07-15 04:18:08 51°13.636 2°56.019 -999 54 16.5 101760 37
2011-07-15 04:18:13 51°13.636 2°56.019 -999 24 16.5 101750 37
2011-07-15 04:18:19 51°13.637 2°56.019 -999 54 16.5 101750 37
2011-07-15 04:18:23 51°13.637 2°56.019 -999 24 16.5 101760 37
2011-07-15 04:18:28 51°13.637 2°56.019 -999 54 16.5 101760 37
2011-07-15 04:18:34 51°13.637 2°56.019 -999 24 16.5 101750 37
2011-07-15 04:18:39 51°13.637 2°56.019 -999 54 16.5 101750 37
2011-07-15 04:18:43 51°13.637 2°56.019 -999 24 16.5 101760 37
2011-07-15 04:18:49 51°13.637 2°56.019 -999 78 16.5 101760 37
2011-07-15 04:18:54 51°13.637 2°56.019 -999 24 16.5 101750 37
2011-07-15 04:18:59 51°13.637 2°56.019 -999 54 16.5 101750 37
2011-07-15 04:19:03 51°13.637 2°56.019 -999 24 16.5 101760 37
2011-07-15 04:19:08 51°13.637 2°56.02 -999 54 16.5 101760 37
2011-07-15 04:19:13 51°13.637 2°56.02 -999 24 16.5 101750 37
2011-07-15 04:19:18 51°13.637 2°56.02 -999 54 16.5 101750 37
2011-07-15 04:19:23 51°13.637 2°56.02 -999 24 16.5 101750 37
2011-07-15 04:19:28 51°13.637 2°56.02 -999 54 16.5 101750 37
2011-07-15 04:19:33 51°13.637 2°56.02 -999 24 16.5 101750 37
2011-07-15 04:19:38 51°13.637 2°56.02 -999 54 16.5 101750 37
2011-07-15 04:19:43 51°13.637 2°56.02 -999 24 16.5 101750 37
2011-07-15 04:19:48 51°13.637 2°56.02 -999 78 16.5 101750 37
2011-07-15 04:19:53 51°13.637 2°56.02 -999 24 16.5 101750 37
2011-07-15 04:19:58 51°13.637 2°56.02 -999 54 16.5 101750 37
2011-07-15 04:20:03 51°13.637 2°56.02 -999 24 16.5 101760 37
2011-07-15 04:20:08 51°13.637 2°56.02 -999 54 16.5 101760 37
2011-07-15 04:20:13 51°13.637 2°56.02 -999 24 16.5 101760 37
2011-07-15 04:20:18 51°13.637 2°56.02 -999 54 16.5 101760 37
2011-07-15 04:20:23 51°13.637 2°56.02 -999 24 16.5 101750 36
2011-07-15 04:20:28 51°13.637 2°56.02 -999 54 16.5 101750 36
2011-07-15 04:20:33 51°13.637 2°56.02 -999 24 16.5 101750 37
2011-07-15 04:20:38 51°13.637 2°56.02 -999 54 16.5 101750 37
2011-07-15 04:20:44 51°13.637 2°56.02 -999 24 16.5 101760 37
2011-07-15 04:20:49 51°13.637 2°56.02 -999 78 16.5 101760 37
2011-07-15 04:20:54 51°13.637 2°56.02 -999 24 16.5 101760 37
2011-07-15 04:20:59 51°13.637 2°56.02 -999 54 16.5 101760 37
2011-07-15 04:21:04 51°13.637 2°56.02 -999 24 16.5 101760 37
2011-07-15 04:21:09 51°13.637 2°56.02 -999 54 16.5 101760 37
2011-07-15 04:21:13 51°13.637 2°56.02 -999 24 16.5 101750 37
2011-07-15 04:21:19 51°13.636 2°56.02 -999 54 16.5 101750 37
2011-07-15 04:21:24 51°13.637 2°56.02 -999 24 16.5 101750 37
2011-07-15 04:21:29 51°13.637 2°56.019 -999 54 16.5 101750 37
2011-07-15 04:21:33 51°13.637 2°56.019 -999 24 16.5 101750 37
2011-07-15 04:21:38 51°13.637 2°56.019 -999 54 16.5 101750 37
2011-07-15 04:21:44 51°13.637 2°56.019 -999 24 16.5 101750 37
2011-07-15 04:21:49 51°13.636 2°56.019 -999 54 16.5 101750 37
2011-07-15 04:21:54 51°13.637 2°56.019 -999 24 16.5 101760 37
2011-07-15 04:21:58 51°13.636 2°56.019 -999 54 16.5 101760 37
2011-07-15 04:22:04 51°13.636 2°56.019 -999 24 16.5 101760 37
2011-07-15 04:22:08 51°13.636 2°56.019 -999 55 16.5 101760 37
2011-07-15 04:22:14 51°13.636 2°56.019 -999 24 16.5 101760 37
2011-07-15 04:22:19 51°13.636 2°56.019 -999 54 16.5 101760 37
2011-07-15 04:22:23 51°13.636 2°56.019 -999 24 16.5 101750 37
2011-07-15 04:22:28 51°13.636 2°56.019 -999 54 16.5 101750 37
2011-07-15 04:22:33 51°13.636 2°56.019 -999 24 16.5 101750 37
2011-07-15 04:22:39 51°13.636 2°56.019 -999 54 16.5 101750 37
2011-07-15 04:22:43 51°13.636 2°56.019 -999 24 16.5 101760 37
2011-07-15 04:22:48 51°13.636 2°56.019 -999 78 16.5 101760 37
2011-07-15 04:22:53 51°13.636 2°56.019 -999 24 16.5 101760 37
2011-07-15 04:22:58 51°13.636 2°56.019 -999 54 16.5 101760 37
2011-07-15 04:23:03 51°13.636 2°56.019 -999 24 16.5 101760 35
2011-07-15 04:23:08 51°13.636 2°56.019 -999 55 16.5 101760 35
2011-07-15 04:23:13 51°13.636 2°56.019 -999 24 16.5 101760 37
2011-07-15 04:23:18 51°13.636 2°56.019 -999 54 16.5 101760 37
2011-07-15 04:23:23 51°13.636 2°56.019 -999 24 16.5 101760 37
2011-07-15 04:23:28 51°13.636 2°56.019 -999 54 16.5 101760 37
2011-07-15 04:23:33 51°13.636 2°56.019 -999 24 16.5 101760 37
2011-07-15 04:23:38 51°13.636 2°56.019 -999 54 16.5 101760 37
2011-07-15 04:23:43 51°13.636 2°56.019 -999 24 16.5 101760 37
2011-07-15 04:23:48 51°13.636 2°56.019 -999 78 16.5 101760 37
2011-07-15 04:23:53 51°13.636 2°56.019 -999 24 16.5 101760 36
2011-07-15 04:23:59 51°13.636 2°56.019 -999 54 16.5 101760 36
2011-07-15 04:24:04 51°13.636 2°56.019 -999 24 16.5 101750 36
2011-07-15 04:24:09 51°13.636 2°56.019 -999 54 16.5 101750 36
2011-07-15 04:24:14 51°13.636 2°56.019 -999 24 16.5 101750 36
2011-07-15 04:24:19 51°13.636 2°56.019 -999 54 16.5 101750 36
2011-07-15 04:24:23 51°13.636 2°56.018 -999 24 16.5 101750 36
2011-07-15 04:24:28 51°13.636 2°56.018 -999 55 16.5 101750 36
2011-07-15 04:24:34 51°13.636 2°56.018 -999 24 16.5 101750 36
2011-07-15 04:24:38 51°13.636 2°56.018 -999 54 16.5 101750 36
2011-07-15 04:24:43 51°13.636 2°56.018 -999 24 16.5 101760 37
2011-07-15 04:24:48 51°13.636 2°56.018 -999 78 16.5 101760 37
2011-07-15 04:24:54 51°13.636 2°56.018 -999 24 16.5 101750 37
2011-07-15 04:24:58 51°13.636 2°56.018 -999 54 16.5 101750 37
2011-07-15 04:25:03 51°13.636 2°56.018 -999 24 16.5 101750 37
2011-07-15 04:25:08 51°13.636 2°56.018 -999 54 16.5 101750 37
2011-07-15 04:25:13 51°13.636 2°56.018 -999 24 16.5 101760 37
2011-07-15 04:25:18 51°13.636 2°56.018 -999 54 16.5 101760 37
2011-07-15 04:25:23 51°13.636 2°56.018 -999 24 16.5 101750 37
2011-07-15 04:25:28 51°13.636 2°56.018 -999 54 16.5 101750 37
2011-07-15 04:25:33 51°13.636 2°56.018 -999 24 16.5 101760 37
2011-07-15 04:25:38 51°13.636 2°56.018 -999 54 16.5 101760 37
2011-07-15 04:25:43 51°13.636 2°56.018 -999 24 16.5 101760 35
2011-07-15 04:25:49 51°13.636 2°56.018 -999 78 16.5 101760 35
2011-07-15 04:25:54 51°13.636 2°56.018 -999 24 16.5 101750 36
2011-07-15 04:25:59 51°13.636 2°56.018 -999 55 16.5 101750 36
2011-07-15 04:26:04 51°13.636 2°56.018 -999 24 16.5 101760 36
2011-07-15 04:26:09 51°13.636 2°56.017 -999 54 16.5 101760 36
2011-07-15 04:26:14 51°13.636 2°56.017 -999 24 16.5 101760 36
2011-07-15 04:26:19 51°13.636 2°56.017 -999 55 16.5 101760 36
2011-07-15 04:26:24 51°13.636 2°56.017 -999 24 16.5 101760 37
2011-07-15 04:26:29 51°13.636 2°56.017 -999 54 16.5 101760 37
2011-07-15 04:26:34 51°13.636 2°56.017 -999 24 16.5 101760 37
2011-07-15 04:26:39 51°13.636 2°56.017 -999 54 16.5 101760 37
2011-07-15 04:26:44 51°13.636 2°56.017 -999 24 16.5 101760 37
2011-07-15 04:26:49 51°13.636 2°56.017 -999 78 16.5 101760 37
2011-07-15 04:26:53 51°13.636 2°56.017 -999 24 16.5 101760 37
2011-07-15 04:26:58 51°13.636 2°56.017 -999 54 16.5 101760 37
2011-07-15 04:27:03 51°13.636 2°56.016 -999 24 16.5 101760 37
2011-07-15 04:27:08 51°13.636 2°56.016 -999 55 16.5 101760 37
2011-07-15 04:27:13 51°13.636 2°56.016 -999 24 16.5 101760 37
2011-07-15 04:27:18 51°13.636 2°56.016 -999 55 16.5 101760 37
2011-07-15 04:27:23 51°13.636 2°56.016 -999 24 16.5 101760 37
2011-07-15 04:27:28 51°13.636 2°56.016 -999 54 16.5 101760 37
2011-07-15 04:27:33 51°13.636 2°56.016 -999 24 16.5 101750 37
2011-07-15 04:27:38 51°13.636 2°56.016 -999 54 16.5 101750 37
2011-07-15 04:27:43 51°13.636 2°56.016 -999 24 16.5 101760 37
2011-07-15 04:27:48 51°13.636 2°56.016 -999 78 16.5 101760 37
2011-07-15 04:27:53 51°13.636 2°56.016 -999 24 16.5 101760 37
2011-07-15 04:27:58 51°13.636 2°56.016 -999 54 16.5 101760 37
2011-07-15 04:28:03 51°13.636 2°56.016 -999 24 16.5 101760 37
2011-07-15 04:28:08 51°13.636 2°56.016 -999 54 16.5 101760 37
2011-07-15 04:28:13 51°13.636 2°56.016 -999 24 16.5 101760 37
2011-07-15 04:28:18 51°13.636 2°56.016 -999 55 16.5 101760 37
2011-07-15 04:28:23 51°13.636 2°56.016 -999 24 16.5 101760 35
2011-07-15 04:28:28 51°13.636 2°56.016 -999 55 16.5 101760 35
2011-07-15 04:28:33 51°13.636 2°56.016 -999 24 16.6 101760 37
2011-07-15 04:28:38 51°13.636 2°56.016 -999 54 16.6 101760 37
2011-07-15 04:28:43 51°13.636 2°56.017 -999 24 16.6 101760 37
2011-07-15 04:28:48 51°13.636 2°56.017 -999 78 16.6 101760 37
2011-07-15 04:28:53 51°13.636 2°56.016 -999 24 16.5 101760 37
2011-07-15 04:28:58 51°13.636 2°56.017 -999 54 16.5 101760 37
2011-07-15 04:29:03 51°13.636 2°56.016 -999 24 16.5 101760 37
2011-07-15 04:29:08 51°13.636 2°56.016 -999 54 16.5 101760 37
2011-07-15 04:29:14 51°13.636 2°56.016 -999 24 16.5 101760 37
2011-07-15 04:29:19 51°13.636 2°56.017 -999 54 16.5 101760 37
2011-07-15 04:29:24 51°13.636 2°56.016 -999 24 16.5 101760 37
2011-07-15 04:29:29 51°13.636 2°56.017 -999 54 16.5 101760 37
2011-07-15 04:29:34 51°13.636 2°56.017 -999 24 16.6 101760 37
2011-07-15 04:29:39 51°13.636 2°56.017 -999 54 16.6 101760 37
2011-07-15 04:29:44 51°13.636 2°56.017 -999 24 16.5 101760 37
2011-07-15 04:29:48 51°13.636 2°56.017 -999 78 16.5 101760 37
2011-07-15 04:29:54 51°13.636 2°56.017 -999 24 16.5 101760 37
2011-07-15 04:29:59 51°13.636 2°56.017 -999 55 16.5 101760 37
2011-07-15 04:30:03 51°13.636 2°56.017 -999 24 16.5 101760 37
2011-07-15 04:30:08 51°13.636 2°56.018 -999 54 16.5 101760 37
2011-07-15 04:30:13 51°13.636 2°56.017 -999 24 16.5 101760 37
2011-07-15 04:30:18 51°13.636 2°56.017 -999 54 16.5 101760 37
2011-07-15 04:30:23 51°13.636 2°56.017 -999 24 16.5 101760 37
2011-07-15 04:30:29 51°13.636 2°56.017 -999 54 16.5 101760 37
2011-07-15 04:30:33 51°13.636 2°56.017 -999 24 16.5 101760 37
2011-07-15 04:30:38 51°13.636 2°56.017 -999 54 16.5 101760 37
2011-07-15 04:30:43 51°13.636 2°56.017 -999 24 16.5 101760 37
2011-07-15 04:30:48 51°13.636 2°56.017 -999 54 16.5 101760 37
2011-07-15 04:30:53 51°13.636 2°56.017 -999 24 16.5 101760 37
2011-07-15 04:30:58 51°13.636 2°56.017 -999 54 16.5 101760 37
2011-07-15 04:31:03 51°13.636 2°56.017 -999 24 16.5 101760 36
2011-07-15 04:31:08 51°13.636 2°56.017 -999 54 16.5 101760 36
2011-07-15 04:31:13 51°13.636 2°56.017 -999 24 16.5 101760 37
2011-07-15 04:31:18 51°13.636 2°56.017 -999 55 16.5 101760 37
2011-07-15 04:31:23 51°13.636 2°56.017 -999 24 16.5 101760 37
2011-07-15 04:31:28 51°13.636 2°56.017 -999 55 16.5 101760 37
2011-07-15 04:31:33 51°13.636 2°56.017 -999 24 16.5 101760 37
2011-07-15 04:31:38 51°13.636 2°56.017 -999 54 16.5 101760 37
2011-07-15 04:31:43 51°13.636 2°56.017 -999 24 16.5 101760 37
2011-07-15 04:31:48 51°13.636 2°56.017 -999 78 16.5 101760 37
2011-07-15 04:31:53 51°13.636 2°56.017 -999 24 16.5 101760 37
2011-07-15 04:31:58 51°13.636 2°56.017 -999 54 16.5 101760 37
2011-07-15 04:32:03 51°13.636 2°56.017 -999 24 16.5 101760 37
2011-07-15 04:32:08 51°13.636 2°56.017 -999 55 16.5 101760 37
2011-07-15 04:32:13 51°13.636 2°56.017 -999 24 16.5 101760 37
2011-07-15 04:32:18 51°13.636 2°56.017 -999 54 16.5 101760 37
2011-07-15 04:32:23 51°13.636 2°56.017 -999 24 16.5 101760 37
2011-07-15 04:32:28 51°13.636 2°56.017 -999 54 16.5 101760 37
2011-07-15 04:32:33 51°13.636 2°56.017 -999 24 16.5 101760 37
2011-07-15 04:32:38 51°13.636 2°56.017 -999 54 16.5 101760 37
2011-07-15 04:32:43 51°13.636 2°56.017 -999 24 16.5 101760 37
2011-07-15 04:32:48 51°13.636 2°56.017 -999 78 16.5 101760 37
2011-07-15 04:32:53 51°13.636 2°56.017 -999 24 16.5 101760 37
2011-07-15 04:32:58 51°13.636 2°56.017 -999 54 16.5 101760 37
2011-07-15 04:33:03 51°13.636 2°56.017 -999 24 16.5 101770 37
2011-07-15 04:33:08 51°13.636 2°56.017 -999 54 16.5 101770 37
2011-07-15 04:33:14 51°13.636 2°56.017 -999 24 16.5 101760 37
2011-07-15 04:33:19 51°13.636 2°56.017 -999 54 16.5 101760 37
2011-07-15 04:33:24 51°13.636 2°56.017 -999 24 16.5 101760 37
2011-07-15 04:33:29 51°13.636 2°56.017 -999 54 16.5 101760 37
2011-07-15 04:33:34 51°13.636 2°56.017 -999 25 16.5 101760 37
2011-07-15 04:33:39 51°13.636 2°56.017 -999 54 16.5 101760 37
2011-07-15 04:33:44 51°13.636 2°56.017 -999 24 16.5 101760 36
2011-07-15 04:33:49 51°13.636 2°56.017 -999 54 16.5 101760 36
2011-07-15 04:33:54 51°13.636 2°56.017 -999 24 16.5 101760 37
2011-07-15 04:33:59 51°13.636 2°56.017 -999 54 16.5 101760 37
2011-07-15 04:34:04 51°13.636 2°56.017 -999 24 16.5 101760 37
2011-07-15 04:34:08 51°13.636 2°56.017 -999 54 16.5 101760 37
2011-07-15 04:34:13 51°13.636 2°56.017 -999 24 16.5 101760 37
2011-07-15 04:34:18 51°13.636 2°56.017 -999 54 16.5 101760 37
2011-07-15 04:34:23 51°13.636 2°56.017 -999 24 16.5 101760 37
2011-07-15 04:34:28 51°13.636 2°56.017 -999 54 16.5 101760 37
2011-07-15 04:34:33 51°13.636 2°56.017 -999 24 16.5 101770 37
2011-07-15 04:34:38 51°13.636 2°56.018 -999 54 16.5 101770 37
2011-07-15 04:34:43 51°13.636 2°56.018 -999 24 16.5 101770 37
2011-07-15 04:34:48 51°13.636 2°56.018 -999 78 16.5 101770 37
2011-07-15 04:34:53 51°13.636 2°56.018 -999 24 16.5 101760 37
2011-07-15 04:34:58 51°13.636 2°56.018 -999 54 16.5 101760 37
2011-07-15 04:35:03 51°13.636 2°56.018 -999 24 16.5 101760 37
2011-07-15 04:35:08 51°13.636 2°56.018 -999 54 16.5 101760 37
2011-07-15 04:35:13 51°13.636 2°56.018 -999 24 16.5 101770 37
2011-07-15 04:35:18 51°13.636 2°56.018 -999 54 16.5 101770 37
2011-07-15 04:35:23 51°13.636 2°56.018 -999 24 16.5 101770 37
2011-07-15 04:35:28 51°13.636 2°56.018 -999 54 16.5 101770 37
2011-07-15 04:35:33 51°13.636 2°56.018 -999 24 16.5 101770 37
2011-07-15 04:35:38 51°13.636 2°56.018 -999 55 16.5 101770 37
2011-07-15 04:35:43 51°13.636 2°56.018 -999 24 16.5 101760 37
2011-07-15 04:35:48 51°13.636 2°56.018 -999 78 16.5 101760 37
2011-07-15 04:35:53 51°13.636 2°56.018 -999 24 16.5 101760 37
2011-07-15 04:35:58 51°13.636 2°56.018 -999 54 16.5 101760 37
2011-07-15 04:36:03 51°13.636 2°56.018 -999 24 16.5 101760 37
2011-07-15 04:36:09 51°13.636 2°56.018 -999 54 16.5 101760 37
2011-07-15 04:36:13 51°13.636 2°56.018 -999 24 16.5 101760 37
2011-07-15 04:36:18 51°13.636 2°56.018 -999 54 16.5 101760 37
2011-07-15 04:36:23 51°13.636 2°56.018 -999 24 16.5 101760 36
2011-07-15 04:36:29 51°13.636 2°56.018 -999 54 16.5 101760 36
2011-07-15 04:36:33 51°13.636 2°56.018 -999 24 16.5 101760 37
2011-07-15 04:36:39 51°13.636 2°56.018 -999 54 16.5 101760 37
2011-07-15 04:36:44 51°13.636 2°56.019 -999 24 16.5 101760 37
2011-07-15 04:36:49 51°13.636 2°56.018 -999 54 16.5 101760 37
2011-07-15 04:36:54 51°13.636 2°56.018 -999 24 16.5 101760 37
2011-07-15 04:36:58 51°13.636 2°56.018 -999 54 16.5 101760 37
2011-07-15 04:37:04 51°13.636 2°56.018 -999 24 16.5 101760 37
2011-07-15 04:37:09 51°13.636 2°56.019 -999 54 16.5 101760 37
2011-07-15 04:37:13 51°13.636 2°56.018 -999 24 16.5 101760 37
2011-07-15 04:37:19 51°13.636 2°56.018 -999 54 16.5 101760 37
2011-07-15 04:37:24 51°13.636 2°56.018 -999 24 16.5 101760 37
2011-07-15 04:37:29 51°13.636 2°56.018 -999 54 16.5 101760 37
2011-07-15 04:37:33 51°13.636 2°56.018 -999 24 16.5 101760 37
2011-07-15 04:37:38 51°13.636 2°56.018 -999 54 16.5 101760 37
2011-07-15 04:37:43 51°13.636 2°56.018 -999 24 16.5 101760 37
2011-07-15 04:37:48 51°13.636 2°56.018 -999 78 16.5 101760 37
2011-07-15 04:37:53 51°13.636 2°56.018 -999 24 16.5 101760 37
2011-07-15 04:37:58 51°13.636 2°56.018 -999 55 16.5 101760 37
2011-07-15 04:38:03 51°13.636 2°56.018 -999 24 16.5 101760 37
2011-07-15 04:38:08 51°13.636 2°56.018 -999 54 16.5 101760 37
2011-07-15 04:38:13 51°13.636 2°56.018 -999 24 16.5 101760 37
2011-07-15 04:38:18 51°13.636 2°56.018 -999 54 16.5 101760 37
2011-07-15 04:38:23 51°13.636 2°56.018 -999 24 16.5 101760 37
2011-07-15 04:38:28 51°13.636 2°56.018 -999 54 16.5 101760 37
2011-07-15 04:38:33 51°13.636 2°56.018 -999 24 16.5 101760 37
2011-07-15 04:38:38 51°13.636 2°56.018 -999 54 16.5 101760 37
2011-07-15 04:38:43 51°13.636 2°56.018 -999 24 16.5 101760 37
2011-07-15 04:38:48 51°13.636 2°56.018 -999 78 16.5 101760 37
2011-07-15 04:38:53 51°13.636 2°56.018 -999 24 16.5 101760 37
2011-07-15 04:38:58 51°13.636 2°56.018 -999 54 16.5 101760 37
2011-07-15 04:39:04 51°13.637 2°56.018 -999 24 16.5 101760 36
2011-07-15 04:39:09 51°13.637 2°56.017 -999 54 16.5 101760 36
2011-07-15 04:39:13 51°13.636 2°56.017 -999 24 16.5 101760 37
2011-07-15 04:39:19 51°13.637 2°56.017 -999 54 16.5 101760 37
2011-07-15 04:39:23 51°13.636 2°56.017 -999 25 16.5 101760 37
2011-07-15 04:39:28 51°13.636 2°56.017 -999 54 16.5 101760 37
2011-07-15 04:39:33 51°13.636 2°56.017 -999 24 16.5 101760 37
2011-07-15 04:39:38 51°13.636 2°56.017 -999 54 16.5 101760 37
2011-07-15 04:39:43 51°13.636 2°56.017 -999 24 16.5 101760 37
2011-07-15 04:39:48 51°13.636 2°56.017 -999 78 16.5 101760 37
2011-07-15 04:39:53 51°13.636 2°56.017 -999 24 16.5 101770 37
2011-07-15 04:39:59 51°13.636 2°56.017 -999 54 16.5 101770 37
2011-07-15 04:40:03 51°13.636 2°56.017 -999 24 16.5 101770 37
2011-07-15 04:40:08 51°13.636 2°56.018 -999 54 16.5 101770 37
2011-07-15 04:40:13 51°13.636 2°56.017 -999 24 16.5 101760 37
2011-07-15 04:40:18 51°13.636 2°56.017 -999 54 16.5 101760 37
2011-07-15 04:40:23 51°13.636 2°56.017 -999 24 16.5 101760 37
2011-07-15 04:40:28 51°13.636 2°56.017 -999 54 16.5 101760 37
2011-07-15 04:40:34 51°13.636 2°56.017 -999 24 16.5 101770 37
2011-07-15 04:40:38 51°13.636 2°56.017 -999 54 16.5 101770 37
2011-07-15 04:40:44 51°13.636 2°56.017 -999 24 16.5 101760 38
2011-07-15 04:40:49 51°13.636 2°56.017 -999 78 16.5 101760 38
2011-07-15 04:40:53 51°13.636 2°56.017 -999 24 16.5 101770 37
2011-07-15 04:40:59 51°13.636 2°56.017 -999 54 16.5 101770 37
2011-07-15 04:41:04 51°13.636 2°56.017 -999 24 16.5 101770 37
2011-07-15 04:41:08 51°13.636 2°56.017 -999 54 16.5 101770 37
2011-07-15 04:41:14 51°13.636 2°56.017 -999 24 16.5 101770 37
2011-07-15 04:41:19 51°13.636 2°56.017 -999 54 16.5 101770 37
2011-07-15 04:41:24 51°13.636 2°56.017 -999 24 16.5 101770 38
2011-07-15 04:41:28 51°13.636 2°56.017 -999 54 16.5 101770 38
2011-07-15 04:41:34 51°13.636 2°56.017 -999 24 16.5 101770 38
2011-07-15 04:41:39 51°13.637 2°56.017 -999 54 16.5 101770 38
2011-07-15 04:41:43 51°13.637 2°56.017 -999 24 16.5 101770 36
2011-07-15 04:41:48 51°13.636 2°56.017 -999 77 16.5 101770 36
2011-07-15 04:41:53 51°13.636 2°56.017 -999 24 16.5 101770 38
2011-07-15 04:41:58 51°13.637 2°56.017 -999 54 16.5 101770 38
2011-07-15 04:42:03 51°13.636 2°56.017 -999 24 16.5 101770 38
2011-07-15 04:42:08 51°13.636 2°56.017 -999 55 16.5 101770 38
2011-07-15 04:42:13 51°13.636 2°56.017 -999 24 16.5 101770 38
2011-07-15 04:42:18 51°13.636 2°56.017 -999 54 16.5 101770 38
2011-07-15 04:42:23 51°13.636 2°56.017 -999 24 16.5 101770 38
2011-07-15 04:42:28 51°13.636 2°56.017 -999 54 16.5 101770 38
2011-07-15 04:42:33 51°13.636 2°56.017 -999 24 16.5 101770 38
2011-07-15 04:42:39 51°13.636 2°56.017 -999 54 16.5 101770 38
2011-07-15 04:42:44 51°13.636 2°56.017 -999 24 16.5 101770 37
2011-07-15 04:42:49 51°13.636 2°56.017 -999 78 16.5 101770 37
2011-07-15 04:42:54 51°13.636 2°56.017 -999 24 16.5 101770 37
2011-07-15 04:42:59 51°13.637 2°56.017 -999 55 16.5 101770 37
2011-07-15 04:43:03 51°13.637 2°56.017 -999 24 16.5 101770 37
2011-07-15 04:43:08 51°13.637 2°56.016 -999 54 16.5 101770 37
2011-07-15 04:43:14 51°13.637 2°56.016 -999 24 16.5 101770 37
2011-07-15 04:43:19 51°13.637 2°56.016 -999 54 16.5 101770 37
2011-07-15 04:43:24 51°13.637 2°56.016 -999 24 16.5 101770 37
2011-07-15 04:43:29 51°13.637 2°56.016 -999 55 16.5 101770 37
2011-07-15 04:43:33 51°13.637 2°56.016 -999 24 16.5 101770 37
2011-07-15 04:43:39 51°13.637 2°56.016 -999 55 16.5 101770 37
2011-07-15 04:43:44 51°13.637 2°56.016 -999 24 16.5 101770 38
2011-07-15 04:43:49 51°13.637 2°56.016 -999 78 16.5 101770 38
2011-07-15 04:43:53 51°13.637 2°56.016 -999 24 16.5 101770 38
2011-07-15 04:43:59 51°13.637 2°56.016 -999 54 16.5 101770 38
2011-07-15 04:44:04 51°13.637 2°56.016 -999 24 16.5 101770 38
2011-07-15 04:44:09 51°13.637 2°56.016 -999 54 16.5 101770 38
2011-07-15 04:44:14 51°13.637 2°56.016 -999 24 16.5 101770 38
2011-07-15 04:44:19 51°13.637 2°56.016 -999 54 16.5 101770 38
2011-07-15 04:44:23 51°13.637 2°56.016 -999 24 16.5 101770 36
2011-07-15 04:44:28 51°13.637 2°56.016 -999 54 16.5 101770 36
2011-07-15 04:44:34 51°13.637 2°56.016 -999 24 16.5 101770 38
2011-07-15 04:44:39 51°13.637 2°56.016 -999 55 16.5 101770 38
2011-07-15 04:44:43 51°13.637 2°56.016 -999 24 16.5 101770 38
2011-07-15 04:44:48 51°13.637 2°56.016 -999 78 16.5 101770 38
2011-07-15 04:44:53 51°13.637 2°56.016 -999 24 16.5 101770 38
2011-07-15 04:44:58 51°13.637 2°56.016 -999 55 16.5 101770 38
2011-07-15 04:45:03 51°13.637 2°56.016 -999 24 16.5 101770 38
2011-07-15 04:45:08 51°13.637 2°56.016 -999 54 16.5 101770 38
2011-07-15 04:45:13 51°13.637 2°56.016 -999 24 16.5 101770 37
2011-07-15 04:45:18 51°13.637 2°56.016 -999 54 16.5 101770 37
2011-07-15 04:45:23 51°13.637 2°56.016 -999 24 16.5 101770 37
2011-07-15 04:45:28 51°13.637 2°56.016 -999 54 16.5 101770 37
2011-07-15 04:45:33 51°13.637 2°56.017 -999 24 16.5 101770 37
2011-07-15 04:45:38 51°13.637 2°56.017 -999 54 16.5 101770 37
2011-07-15 04:45:43 51°13.637 2°56.017 -999 24 16.5 101770 37
2011-07-15 04:45:48 51°13.637 2°56.017 -999 78 16.5 101770 37
2011-07-15 04:45:53 51°13.637 2°56.017 -999 24 16.4 101770 37
2011-07-15 04:45:58 51°13.637 2°56.017 -999 54 16.4 101770 37
2011-07-15 04:46:03 51°13.636 2°56.018 -999 24 16.4 101770 37
2011-07-15 04:46:08 51°13.636 2°56.018 -999 54 16.4 101770 37
2011-07-15 04:46:13 51°13.636 2°56.018 -999 24 16.4 101770 37
2011-07-15 04:46:18 51°13.636 2°56.018 -999 54 16.4 101770 37
2011-07-15 04:46:23 51°13.636 2°56.018 -999 24 16.4 101770 37
2011-07-15 04:46:28 51°13.636 2°56.018 -999 54 16.4 101770 37
2011-07-15 04:46:33 51°13.636 2°56.018 -999 24 16.4 101770 37
2011-07-15 04:46:38 51°13.636 2°56.018 -999 54 16.4 101770 37
2011-07-15 04:46:43 51°13.636 2°56.018 -999 24 16.4 101770 37
2011-07-15 04:46:48 51°13.637 2°56.018 -999 78 16.4 101770 37
2011-07-15 04:46:53 51°13.637 2°56.018 -999 24 16.4 101770 37
2011-07-15 04:46:58 51°13.637 2°56.018 -999 54 16.4 101770 37
2011-07-15 04:47:03 51°13.637 2°56.018 -999 24 16.4 101770 35
2011-07-15 04:47:08 51°13.637 2°56.018 -999 54 16.4 101770 35
2011-07-15 04:47:13 51°13.637 2°56.018 -999 24 16.4 101770 37
2011-07-15 04:47:18 51°13.637 2°56.018 -999 54 16.4 101770 37
2011-07-15 04:47:23 51°13.637 2°56.018 -999 24 16.4 101770 37
2011-07-15 04:47:28 51°13.637 2°56.018 -999 54 16.4 101770 37
2011-07-15 04:47:33 51°13.637 2°56.017 -999 24 16.4 101770 36
2011-07-15 04:47:38 51°13.637 2°56.017 -999 54 16.4 101770 36
2011-07-15 04:47:43 51°13.637 2°56.017 -999 24 16.4 101770 36
2011-07-15 04:47:49 51°13.637 2°56.017 -999 78 16.4 101770 36
2011-07-15 04:47:54 51°13.637 2°56.017 -999 24 16.4 101770 36
2011-07-15 04:47:59 51°13.637 2°56.017 -999 54 16.4 101770 36
2011-07-15 04:48:04 51°13.637 2°56.017 -999 24 16.4 101770 36
2011-07-15 04:48:09 51°13.637 2°56.017 -999 54 16.4 101770 36
2011-07-15 04:48:13 51°13.637 2°56.017 -999 24 16.4 101770 36
2011-07-15 04:48:18 51°13.637 2°56.018 -999 54 16.4 101770 36
2011-07-15 04:48:23 51°13.636 2°56.018 -999 24 16.4 101770 36
2011-07-15 04:48:28 51°13.636 2°56.018 -999 54 16.4 101770 36
2011-07-15 04:48:33 51°13.637 2°56.018 -999 24 16.5 101770 36
2011-07-15 04:48:38 51°13.636 2°56.018 -999 54 16.5 101770 36
2011-07-15 04:48:43 51°13.637 2°56.018 -999 24 16.4 101770 36
2011-07-15 04:48:48 51°13.637 2°56.018 -999 77 16.4 101770 36
2011-07-15 04:48:53 51°13.637 2°56.018 -999 24 16.4 101770 36
2011-07-15 04:48:59 51°13.637 2°56.018 -999 54 16.4 101770 36
2011-07-15 04:49:03 51°13.637 2°56.018 -999 24 16.4 101770 36
2011-07-15 04:49:08 51°13.637 2°56.018 -999 54 16.4 101770 36
2011-07-15 04:49:14 51°13.636 2°56.018 -999 24 16.4 101770 36
2011-07-15 04:49:18 51°13.637 2°56.018 -999 54 16.4 101770 36
2011-07-15 04:49:23 51°13.637 2°56.017 -999 24 16.4 101770 36
2011-07-15 04:49:28 51°13.637 2°56.017 -999 54 16.4 101770 36
2011-07-15 04:49:33 51°13.637 2°56.018 -999 24 16.4 101770 36
2011-07-15 04:49:38 51°13.637 2°56.018 -999 54 16.4 101770 36
2011-07-15 04:49:43 51°13.637 2°56.018 -999 24 16.4 101770 35
2011-07-15 04:49:48 51°13.637 2°56.018 -999 78 16.4 101770 35
2011-07-15 04:49:53 51°13.637 2°56.018 -999 24 16.4 101770 36
2011-07-15 04:49:58 51°13.637 2°56.018 -999 54 16.4 101770 36
2011-07-15 04:50:03 51°13.637 2°56.018 -999 24 16.5 101770 36
2011-07-15 04:50:08 51°13.637 2°56.018 -999 55 16.5 101770 36
2011-07-15 04:50:13 51°13.637 2°56.018 -999 24 16.5 101770 36
2011-07-15 04:50:19 51°13.637 2°56.018 -999 54 16.5 101770 36
2011-07-15 04:50:24 51°13.637 2°56.018 -999 24 16.5 101770 36
2011-07-15 04:50:28 51°13.637 2°56.018 -999 54 16.5 101770 36
2011-07-15 04:50:34 51°13.637 2°56.018 -999 24 16.4 101770 36
2011-07-15 04:50:38 51°13.637 2°56.018 -999 54 16.4 101770 36
2011-07-15 04:50:43 51°13.637 2°56.018 -999 24 16.5 101770 36
2011-07-15 04:50:48 51°13.637 2°56.018 -999 78 16.5 101770 36
2011-07-15 04:50:53 51°13.637 2°56.018 -999 24 16.4 101770 36
2011-07-15 04:50:58 51°13.637 2°56.018 -999 54 16.4 101770 36
2011-07-15 04:51:03 51°13.637 2°56.018 -999 24 16.5 101770 37
2011-07-15 04:51:08 51°13.637 2°56.018 -999 54 16.5 101770 37
2011-07-15 04:51:13 51°13.637 2°56.018 -999 24 16.5 101770 37
2011-07-15 04:51:18 51°13.637 2°56.018 -999 54 16.5 101770 37
2011-07-15 04:51:23 51°13.637 2°56.018 -999 24 16.5 101770 37
2011-07-15 04:51:28 51°13.637 2°56.018 -999 54 16.5 101770 37
2011-07-15 04:51:33 51°13.637 2°56.018 -999 24 16.5 101770 37
2011-07-15 04:51:38 51°13.637 2°56.018 -999 54 16.5 101770 37
2011-07-15 04:51:43 51°13.637 2°56.018 -999 24 16.5 101770 37
2011-07-15 04:51:48 51°13.637 2°56.018 -999 78 16.5 101770 37
2011-07-15 04:51:54 51°13.637 2°56.018 -999 24 16.5 101770 37
2011-07-15 04:51:59 51°13.637 2°56.018 -999 54 16.5 101770 37
2011-07-15 04:52:04 51°13.637 2°56.018 -999 24 16.5 101770 36
2011-07-15 04:52:09 51°13.637 2°56.018 -999 54 16.5 101770 36
2011-07-15 04:52:13 51°13.637 2°56.018 -999 24 16.5 101770 36
2011-07-15 04:52:19 51°13.637 2°56.018 -999 54 16.5 101770 36
2011-07-15 04:52:23 51°13.636 2°56.018 -999 24 16.5 101770 35
2011-07-15 04:52:28 51°13.636 2°56.019 -999 54 16.5 101770 35
2011-07-15 04:52:33 51°13.636 2°56.019 -999 24 16.4 101770 36
2011-07-15 04:52:38 51°13.636 2°56.018 -999 54 16.4 101770 36
2011-07-15 04:52:43 51°13.636 2°56.018 -999 24 16.5 101770 36
2011-07-15 04:52:49 51°13.637 2°56.018 -999 78 16.5 101770 36
2011-07-15 04:52:53 51°13.637 2°56.018 -999 24 16.5 101770 36
2011-07-15 04:52:58 51°13.637 2°56.018 -999 54 16.5 101770 36
2011-07-15 04:53:03 51°13.637 2°56.018 -999 24 16.4 101770 36
2011-07-15 04:53:09 51°13.636 2°56.018 -999 55 16.4 101770 36
2011-07-15 04:53:13 51°13.636 2°56.018 -999 24 16.4 101770 36
2011-07-15 04:53:18 51°13.636 2°56.018 -999 54 16.4 101770 36
2011-07-15 04:53:23 51°13.636 2°56.018 -999 24 16.4 101770 36
2011-07-15 04:53:28 51°13.636 2°56.018 -999 54 16.4 101770 36
2011-07-15 04:53:33 51°13.637 2°56.018 -999 24 16.4 101770 36
2011-07-15 04:53:38 51°13.637 2°56.017 -999 54 16.4 101770 36
2011-07-15 04:53:43 51°13.637 2°56.017 -999 24 16.4 101770 37
2011-07-15 04:53:48 51°13.637 2°56.017 -999 78 16.4 101770 37
2011-07-15 04:53:54 51°13.637 2°56.017 -999 24 16.4 101770 37
2011-07-15 04:53:59 51°13.637 2°56.017 -999 54 16.4 101770 37
2011-07-15 04:54:03 51°13.637 2°56.017 -999 24 16.4 101770 37
2011-07-15 04:54:09 51°13.637 2°56.017 -999 54 16.4 101770 37
2011-07-15 04:54:14 51°13.637 2°56.017 -999 24 16.4 101770 37
2011-07-15 04:54:18 51°13.637 2°56.017 -999 54 16.4 101770 37
2011-07-15 04:54:24 51°13.637 2°56.017 -999 24 16.4 101770 37
2011-07-15 04:54:29 51°13.637 2°56.017 -999 54 16.4 101770 37
2011-07-15 04:54:33 51°13.637 2°56.017 -999 24 16.4 101770 37
2011-07-15 04:54:38 51°13.637 2°56.017 -999 55 16.4 101770 37
2011-07-15 04:54:44 51°13.637 2°56.017 -999 24 16.4 101770 37
2011-07-15 04:54:48 51°13.637 2°56.017 -999 78 16.4 101770 37
2011-07-15 04:54:53 51°13.637 2°56.017 -999 24 16.4 101770 37
2011-07-15 04:54:58 51°13.637 2°56.017 -999 54 16.4 101770 37
2011-07-15 04:55:03 51°13.637 2°56.017 -999 24 16.4 101770 35
2011-07-15 04:55:08 51°13.637 2°56.017 -999 54 16.4 101770 35
2011-07-15 04:55:13 51°13.637 2°56.016 -999 24 16.4 101770 37
2011-07-15 04:55:18 51°13.637 2°56.016 -999 55 16.4 101770 37
2011-07-15 04:55:23 51°13.637 2°56.016 -999 24 16.4 101770 37
2011-07-15 04:55:29 51°13.638 2°56.016 -999 55 16.4 101770 37
2011-07-15 04:55:34 51°13.638 2°56.016 -999 24 16.4 101770 37
2011-07-15 04:55:39 51°13.638 2°56.016 -999 54 16.4 101770 37
2011-07-15 04:55:44 51°13.638 2°56.016 -999 24 16.4 101770 37
2011-07-15 04:55:49 51°13.638 2°56.016 -999 78 16.4 101770 37
2011-07-15 04:55:54 51°13.638 2°56.016 -999 24 16.4 101770 37
2011-07-15 04:55:59 51°13.638 2°56.016 -999 55 16.4 101770 37
2011-07-15 04:56:04 51°13.638 2°56.016 -999 24 16.4 101770 37
2011-07-15 04:56:09 51°13.638 2°56.015 -999 54 16.4 101770 37
2011-07-15 04:56:13 51°13.638 2°56.015 -999 24 16.4 101770 37
2011-07-15 04:56:18 51°13.638 2°56.016 -999 55 16.4 101770 37
2011-07-15 04:56:23 51°13.638 2°56.016 -999 25 16.4 101770 37
2011-07-15 04:56:29 51°13.638 2°56.016 -999 54 16.4 101770 37
2011-07-15 04:56:33 51°13.637 2°56.016 -999 24 16.4 101770 38
2011-07-15 04:56:38 51°13.638 2°56.016 -999 54 16.4 101770 38
2011-07-15 04:56:43 51°13.638 2°56.016 -999 24 16.4 101770 37
2011-07-15 04:56:48 51°13.637 2°56.015 -999 78 16.4 101770 37
2011-07-15 04:56:53 51°13.638 2°56.015 -999 24 16.4 101770 37
2011-07-15 04:56:58 51°13.638 2°56.015 -999 54 16.4 101770 37
2011-07-15 04:57:03 51°13.638 2°56.015 -999 24 16.4 101770 38
2011-07-15 04:57:08 51°13.638 2°56.015 -999 54 16.4 101770 38
2011-07-15 04:57:13 51°13.638 2°56.015 -999 24 16.4 101770 38
2011-07-15 04:57:19 51°13.638 2°56.015 -999 54 16.4 101770 38
2011-07-15 04:57:24 51°13.638 2°56.015 -999 24 16.4 101770 38
2011-07-15 04:57:29 51°13.638 2°56.014 -999 54 16.4 101770 38
2011-07-15 04:57:34 51°13.638 2°56.015 -999 24 16.4 101770 38
2011-07-15 04:57:38 51°13.638 2°56.015 -999 54 16.4 101770 38
2011-07-15 04:57:44 51°13.638 2°56.015 -999 24 16.4 101770 36
2011-07-15 04:57:49 51°13.638 2°56.015 -999 78 16.4 101770 36
2011-07-15 04:57:53 51°13.638 2°56.015 -999 24 16.4 101770 38
2011-07-15 04:57:59 51°13.638 2°56.015 -999 55 16.4 101770 38
2011-07-15 04:58:04 51°13.638 2°56.015 -999 24 16.4 101770 38
2011-07-15 04:58:08 51°13.638 2°56.015 -999 54 16.4 101770 38
2011-07-15 04:58:13 51°13.638 2°56.015 -999 24 16.4 101770 38
2011-07-15 04:58:19 51°13.638 2°56.015 -999 54 16.4 101770 38
2011-07-15 04:58:23 51°13.638 2°56.015 -999 24 16.4 101770 38
2011-07-15 04:58:28 51°13.638 2°56.015 -999 54 16.4 101770 38
2011-07-15 04:58:34 51°13.638 2°56.015 -999 24 16.4 101770 38
2011-07-15 04:58:39 51°13.638 2°56.015 -999 54 16.4 101770 38
2011-07-15 04:58:43 51°13.638 2°56.015 -999 24 16.4 101770 38
2011-07-15 04:58:48 51°13.638 2°56.015 -999 78 16.4 101770 38
2011-07-15 04:58:54 51°13.638 2°56.014 -999 24 16.4 101770 38
2011-07-15 04:58:59 51°13.638 2°56.015 -999 55 16.4 101770 38
2011-07-15 04:59:03 51°13.638 2°56.015 -999 24 16.4 101770 38
2011-07-15 04:59:09 51°13.638 2°56.015 -999 54 16.4 101770 38
2011-07-15 04:59:14 51°13.638 2°56.015 -999 24 16.4 101770 38
2011-07-15 04:59:18 51°13.637 2°56.015 -999 54 16.4 101770 38
2011-07-15 04:59:23 51°13.637 2°56.015 -999 24 16.4 101770 38
2011-07-15 04:59:29 51°13.637 2°56.015 -999 54 16.4 101770 38
2011-07-15 04:59:33 51°13.637 2°56.015 -999 25 16.4 101770 38